This demonstration page uses our WeatherBlox Daily Observations layout. Learn more.

Left ArrowRight Arrow

38.88101, -77.10428

Hourly Observations for February 1, 2021

Temp ( °F °C ) Dew Point ( °F °C ) Humidity (%) Winds ( mph kmh ) Pressure ( in mb ) Visibility ( mi km ) Precip ( " mm )
12:24 am 00:24 Cloudy with Light Freezing Drizzle 30 -1.1 28 -2.2 92 92 NNE 15 24 29.89 1012 6 10 0.00 0.00
12:52 am 00:52 Cloudy with Light Freezing Drizzle 31 -0.6 28 -2.2 89 89 NNE 15 24 29.86 1011 6 10 0.00 0.00
1:52 am 01:52 Cloudy 31 -0.6 28 -2.2 89 89 NNE 17 28 29.85 1011 8 13 0.00 0.00
2:07 am 02:07 Cloudy with Light Freezing Drizzle 31 -0.6 28 -2.2 89 89 NNE 16 26 29.85 1011 7 11 0.00 0.00
2:52 am 02:52 Cloudy with Light Freezing Drizzle 31 -0.6 28 -2.2 89 89 N 14 22 29.83 1010 7 11 0.00 0.00
3:21 am 03:21 Cloudy 32 0 28 -2.2 85 85 N 14 22 29.82 1010 10 16 0.00 0.00
3:32 am 03:32 Cloudy with Light Freezing Drizzle 32 0 28 -2.2 85 85 N 16 26 29.82 1010 7 11 0.00 0.00
3:52 am 03:52 Cloudy with Light Freezing Drizzle 31 -0.6 28 -2.2 89 89 N 14 22 29.82 1010 5 8 0.00 0.00
4:52 am 04:52 Cloudy with Light Freezing Drizzle 31 -0.6 28 -2.2 89 89 N 17 28 29.80 1009 5 8 0.00 0.00
5:52 am 05:52 Cloudy with Light Freezing Drizzle 31 -0.6 28 -2.2 89 89 NNW 13 20 29.81 1010 5 8 0.00 0.00
6:52 am 06:52 Cloudy with Light Freezing Drizzle 30 -1.1 27 -2.8 88 88 NNW 16 26 29.81 1009 5 8 0.00 0.00
7:52 am 07:52 Cloudy with Light Freezing Drizzle 29 -1.7 26 -3.3 89 89 NNW 17 28 29.80 1009 4 6 0.00 0.00
8:52 am 08:52 Cloudy with Light Freezing Drizzle 29 -1.7 26 -3.3 89 89 NNW 13 20 29.81 1010 3 5 0.00 0.00
8:54 am 08:54 Cloudy with Light Freezing Rain 29 -1.7 26 -3.3 89 89 NNW 16 26 29.82 1010 2 3 0.00 0.00
9:18 am 09:18 Cloudy with Light Freezing Drizzle 30 -1.1 27 -2.8 88 88 NNW 15 24 29.81 1010 3 5 0.00 0.00
9:52 am 09:52 Cloudy with Light Freezing Drizzle 31 -0.6 28 -2.2 89 89 NNW 17 28 29.80 1009 3 5 0.00 0.00
10:05 am 10:05 Cloudy with Light Freezing Rain 31 -0.6 28 -2.2 89 89 N 17 28 29.80 1009 2 3 0.00 0.00
10:21 am 10:21 Cloudy with Light Freezing Rain 32 0 28 -2.2 85 85 NNW 20 31 29.80 1009 3 5 0.01 0.25
10:52 am 10:52 Cloudy with Light Freezing Rain 32 0 29 -1.7 88 88 NNW 20 31 29.79 1009 3 5 0.02 0.51
10:56 am 10:56 Cloudy with Mist and Fog 32 0 29 -1.7 88 88 NNW 18 30 29.80 1009 3 5 0.00 0.00
11:11 am 11:11 Cloudy with Light Freezing Rain 32 0 29 -1.7 88 88 NNW 18 30 29.79 1009 4 6 0.00 0.00
11:31 am 11:31 Cloudy with Mist and Fog 32 0 30 -1.1 92 92 NNW 14 22 29.79 1009 3 5 0.02 0.51
11:52 am 11:52 Cloudy with Light Freezing Rain 32 0 29 -1.7 88 88 NNW 20 31 29.77 1008 4 6 0.07 1.78
11:54 am 11:54 Cloudy with Mist and Fog 32 0 29 -1.7 88 88 NNW 18 30 29.77 1008 4 6 0.00 0.00
12:52 pm 12:52 Cloudy with Light Freezing Rain 32 0 29 -1.7 88 88 NNW 16 26 29.75 1007 5 8 0.03 0.76
1:18 pm 13:18 Cloudy with Light Freezing Drizzle 32 0 29 -1.7 88 88 NNW 16 26 29.75 1008 5 8 0.00 0.00
1:52 pm 13:52 Cloudy with Light Freezing Drizzle 32 0 29 -1.7 88 88 NNW 15 24 29.74 1007 4 6 0.00 0.00
2:25 pm 14:25 Cloudy with Light Wintry Mix 32 0 29 -1.7 88 88 NNW 15 24 29.74 1007 2 3 0.00 0.00
2:50 pm 14:50 Cloudy with Light Wintry Mix 34 1 28 -2 81 81 NNW 15 24 29.73 1007 2 3 0.00 0.00
2:51 pm 14:51 Cloudy with Light Wintry Mix 33 0.6 30 -1.1 89 89 NNW 15 24 29.73 1007 2 3 0.00 0.00
3:01 pm 15:01 Cloudy with Light Wintry Mix 33 0.6 29 -1.7 85 85 NNW 17 28 29.73 1007 3 5 0.00 0.00
3:40 pm 15:40 Cloudy with Light Freezing Drizzle 32 0 29 -1.7 88 88 NNW 15 24 29.74 1007 4 6 0.00 0.00
3:47 pm 15:47 Cloudy with Light Freezing Drizzle 32 0 28 -2 87 87 NNW 14 22 29.74 1007 3 5 0.00 0.00
3:52 pm 15:52 Cloudy with Light Freezing Drizzle 32 0 29 -1.7 88 88 NNW 14 22 29.74 1007 3 5 0.00 0.00
3:54 pm 15:54 Cloudy with Light Freezing Drizzle 32 0 29 -1.7 88 88 NNW 13 20 29.75 1008 6 10 0.00 0.00
3:59 pm 15:59 Cloudy with Light Freezing Drizzle 33 0.6 29 -1.7 85 85 NNW 13 20 29.75 1008 7 11 0.00 0.00
4:09 pm 16:09 Cloudy with Light Freezing Drizzle 32 0 29 -1.7 88 88 NNW 15 24 29.75 1008 6 10 0.00 0.00
4:21 pm 16:21 Cloudy with Light Freezing Drizzle 32 0 29 -1.7 88 88 NNW 14 22 29.75 1008 4 6 0.00 0.00
4:23 pm 16:23 Cloudy with Light Freezing Drizzle 32 0 29 -1.7 88 88 NNW 14 22 29.75 1008 4 6 0.00 0.00
4:52 pm 16:52 Cloudy with Light Freezing Drizzle 32 0 29 -1.7 88 88 N 14 22 29.75 1007 3 5 0.00 0.00
4:59 pm 16:59 Cloudy with Light Wintry Mix 32 0 29 -1.7 88 88 NNW 13 20 29.75 1008 3 4 0.00 0.00
5:06 pm 17:06 Cloudy with Light Wintry Mix 32 0 29 -1.7 88 88 NNW 14 22 29.75 1008 2 3 0.00 0.00
5:10 pm 17:10 Cloudy with Light Snow 32 0 29 -1.7 88 88 NNW 15 24 29.76 1008 2 2 0.00 0.00
5:52 pm 17:52 Cloudy with Light Snow 32 0 29 -1.7 88 88 NW 16 26 29.74 1007 2 3 0.01 0.25
6:07 pm 18:07 Cloudy with Light Snow 32 0 30 -1.1 92 92 NNW 17 28 29.75 1008 3 5 0.01 0.25
6:40 pm 18:40 Cloudy 32 0 29 -1.7 88 88 NNW 15 24 29.74 1007 9 14 0.01 0.25
6:43 pm 18:43 Cloudy 32 0 29 -1.7 88 88 NNW 14 22 29.74 1007 10 16 0.01 0.25
6:52 pm 18:52 Cloudy 33 0.6 29 -1.7 85 85 NNW 17 28 29.74 1007 10 16 0.01 0.25
7:52 pm 19:52 Cloudy with Light Snow 33 0.6 29 -1.7 85 85 NNW 16 26 29.72 1007 9 14 0.00 0.00
8:40 pm 20:40 Windy with Snow Likely 33 0.6 29 -1.7 85 85 NNW 20 31 29.72 1007 7 11 0.00 0.00
8:52 pm 20:52 Cloudy with Light Snow 33 0.6 29 -1.7 85 85 NW 17 28 29.70 1006 9 14 0.00 0.00
9:10 pm 21:10 Cloudy 34 1.1 29 -1.7 82 82 NNW 15 24 29.70 1006 9 14 0.00 0.00
9:52 pm 21:52 Cloudy 34 1.1 30 -1.1 85 85 NNW 16 26 29.69 1005 10 16 0.00 0.00
9:57 pm 21:57 Cloudy 34 1.1 30 -1.1 85 85 NNW 16 26 29.69 1006 10 16 0.00 0.00
10:45 pm 22:45 Cloudy 34 1.1 30 -1.1 85 85 NW 14 22 29.68 1005 10 16 0.00 0.00
10:52 pm 22:52 Cloudy 34 1.1 30 -1.1 85 85 NNW 13 20 29.68 1005 10 16 0.00 0.00
11:14 pm 23:14 Cloudy 34 1.1 30 -1.1 85 85 NW 14 22 29.68 1005 10 16 0.00 0.00
11:52 pm 23:52 Cloudy 34 1.1 30 -1.1 85 85 NW 14 22 29.65 1004 10 16 0.00 0.00

Powered by AerisWeather